sat.trackr.live / text

‹ back to catalog

STARLINK-5424

NORAD 54811 · 2022-175BF

PAYLOAD ACTIVE UNKNOWN

§ Identity

Operator
Country
US
Launch date
2022-12-17
Launch site
AFETR
Launch vehicle
Mass (kg)
RCS (m²)

Purposes: comms

External: N2YO · Heavens-Above · Gunter

§ Orbital elements

Epoch: 2026-05-25T02:20:10.925088Z

Period
95.44 min
Inclination
53.2139°
Eccentricity
0.0001488
Mean motion
15.08839886 rev/d
Perigee alt
538.7 km
Apogee alt
540.8 km
Semi-major
6,917.9 km
B*
6.1957e-5
RAAN
41.1583°
Arg perigee
88.4834°
Mean anomaly
271.6329°
Rev number
19,173

§ Raw data

STARLINK-54241 54811U 22175BF  26145.09734867  .00000698  00000+0  61957-4 0  99922 54811  53.2139  41.1583 0001488  88.4834 271.6329 15.08839886191739

JSON: /api/v1/satellites/54811 · /tle

For live sub-satellite position, see the globe view (requires WebGL).

§ Visibility from observer

Set your observer location to see the next 7 days of passes ≥ 10°. The values pass through the URL so the page stays shareable.

No JS? Fill the form by hand. The geolocation button needs JavaScript.